Orange, MA

4:59 PM EDT on August 22, 2017 (GMT -0400)
Orange Municipal

Weather History for KORE - August, 2012

Change the Weather History Date:

Wednesday, August 8, 2012

  Actual Average Record
Temperature  
Mean Temperature 71 °F -  
Max Temperature 88 °F 79 °F 93 °F (2001)
Min Temperature 55 °F 57 °F 45 °F (2004)
Cooling Degree Days 6    
Growing Degree Days 21 (Base 50)    
Moisture  
Dew Point 59 °F    
Average Humidity 84    
Maximum Humidity 100    
Minimum Humidity 32    
Precipitation  
Precipitation 0.00 in - - ()
Sea Level Pressure  
Sea Level Pressure 29.99 in    
Wind  
Wind Speed 1 mph (SSW)    
Max Wind Speed 10 mph    
Max Gust Speed 18 mph    
Visibility 6 miles    
Events Fog    
Averages and records for this station are not official NWS values.
T = Trace of Precipitation, MM = Missing Value Source: NWS Daily Summary

Daily Weather History Graph

Daily Weather History Graph

Search for Another Location

Airport or City:

Trip Planner

Search our weather history database for the weather conditions in past years. The results will help you decide how hot, cold, wet, or windy it might be!

Date:

Astronomy

Aug. 08, 2012 Rise Set
Actual Time 5:48 AM EDT 7:59 PM EDT
Civil Twilight 5:17 AM EDT 8:30 PM EDT
Nautical Twilight 4:39 AM EDT 9:08 PM EDT
Astronomical Twilight 3:57 AM EDT 9:50 PM EDT
Moon 11:01 PM EDT (8/8) 12:42 PM EDT (8/8)
Length of Visible Light 15h 12m
Length of Day
14h 10m
Waning Gibbous, 61% of the Moon is Illuminated
Aug 8
Waning Gibbous
Aug 9
Last Quarter
Aug 17
New
Aug 24
First Quarter
Aug 31
Full

Hourly Weather History & Observations

Time (EDT) Temp. Heat Index Dew Point Humidity Pressure Visibility Wind Dir Wind Speed Gust Speed Precip Events Conditions
12:52 AM 61.0 °F - 60.1 °F 97% 30.00 in 10.0 mi Calm Calm - N/A   Clear
1:52 AM 61.0 °F - 59.0 °F 93% 29.99 in 10.0 mi Calm Calm - N/A   Clear
2:35 AM 59.0 °F - 57.2 °F 94% 30.00 in 1.8 mi Calm Calm - N/A   Clear
2:46 AM 59.0 °F - 57.2 °F 94% 30.00 in 4.0 mi Calm Calm - N/A   Clear
2:52 AM 59.0 °F - 57.9 °F 96% 30.00 in 10.0 mi Calm Calm - N/A   Clear
3:30 AM 57.2 °F - 57.2 °F 100% 29.99 in 1.5 mi Calm Calm - N/A   Partly Cloudy
3:32 AM 57.2 °F - 57.2 °F 100% 29.99 in 1.0 mi Calm Calm - N/A   Clear
3:42 AM 57.2 °F - 57.2 °F 100% 29.99 in 1.5 mi Calm Calm - N/A   Partly Cloudy
3:45 AM 57.2 °F - 57.2 °F 100% 29.99 in 3.0 mi Calm Calm - N/A   Partly Cloudy
3:52 AM 57.9 °F - 57.0 °F 97% 29.99 in 2.5 mi Calm Calm - N/A   Partly Cloudy
3:54 AM 57.2 °F - 57.2 °F 100% 29.99 in 1.2 mi Calm Calm - N/A   Partly Cloudy
3:56 AM 57.2 °F - 57.2 °F 100% 29.99 in 0.8 mi Calm Calm - N/A   Mist
4:06 AM 57.2 °F - 57.2 °F 100% 29.99 in 1.5 mi Calm Calm - N/A   Partly Cloudy
4:09 AM 57.2 °F - 57.2 °F 100% 29.99 in 3.0 mi Calm Calm - N/A   Partly Cloudy
4:52 AM 57.0 °F - 55.9 °F 96% 29.99 in 4.0 mi Calm Calm - N/A   Clear
5:11 AM 57.2 °F - 55.4 °F 94% 30.00 in 2.5 mi Calm Calm - N/A   Scattered Clouds
5:24 AM 57.2 °F - 55.4 °F 94% 30.00 in 10.0 mi Calm Calm - N/A   Scattered Clouds
5:45 AM 55.4 °F - 55.4 °F 100% 30.00 in 1.5 mi Calm Calm - N/A   Scattered Clouds
5:52 AM 55.9 °F - 55.0 °F 97% 30.00 in 1.8 mi Calm Calm - N/A   Mostly Cloudy
5:56 AM 55.4 °F - 55.4 °F 100% 30.01 in 3.0 mi Calm Calm - N/A   Mostly Cloudy
6:00 AM 55.4 °F - 55.4 °F 100% 30.01 in 1.5 mi Calm Calm - N/A   Mostly Cloudy
6:02 AM 55.4 °F - 55.4 °F 100% 30.01 in 1.0 mi Calm Calm - N/A   Mostly Cloudy
6:12 AM 57.2 °F - 55.4 °F 94% 30.01 in 2.5 mi Calm Calm - N/A   Overcast
6:19 AM 57.2 °F - 55.4 °F 94% 30.01 in 7.0 mi Calm Calm - N/A   Overcast
6:52 AM 59.0 °F - 57.0 °F 93% 30.01 in 10.0 mi Calm Calm - N/A   Overcast
7:17 AM 59.0 °F - 59.0 °F 100% 30.01 in 1.5 mi Calm Calm - N/A   Overcast
7:19 AM 59.0 °F - 59.0 °F 100% 30.01 in 0.8 mi Calm Calm - N/A   Overcast
7:52 AM 61.0 °F - 61.0 °F 100% 30.02 in 0.2 mi Calm Calm - N/A Fog Fog
8:52 AM 63.0 °F - 63.0 °F 100% 30.02 in 2.5 mi Calm Calm - N/A   Overcast
9:00 AM 64.4 °F - 64.4 °F 100% 30.02 in 4.0 mi Calm Calm - N/A   Overcast
9:44 AM 69.8 °F - 64.4 °F 83% 30.02 in 10.0 mi Calm Calm - N/A   Scattered Clouds
9:52 AM 69.1 °F - 64.0 °F 84% 30.02 in 10.0 mi Calm Calm - N/A   Partly Cloudy
10:52 AM 78.1 °F - 64.9 °F 64% 30.01 in 10.0 mi Variable 3.5 mph - N/A   Clear
11:52 AM 82.0 °F 83.1 °F 63.0 °F 52% 29.99 in 10.0 mi Calm Calm - N/A   Clear
12:52 PM 84.9 °F 83.7 °F 55.9 °F 37% 29.98 in 10.0 mi WNW 5.8 mph - N/A   Clear
1:52 PM 87.1 °F 85.9 °F 57.0 °F 36% 29.97 in 10.0 mi SW 9.2 mph - N/A   Clear
2:52 PM 87.1 °F 85.1 °F 54.0 °F 32% 29.95 in 10.0 mi South 9.2 mph 18.4 mph N/A   Clear
3:52 PM 86.0 °F 84.5 °F 55.0 °F 35% 29.95 in 10.0 mi South 10.4 mph - N/A   Clear
4:52 PM 86.0 °F 84.9 °F 57.0 °F 37% 29.94 in 10.0 mi South 8.1 mph - N/A   Partly Cloudy
5:52 PM 86.0 °F 84.9 °F 57.0 °F 37% 29.94 in 10.0 mi SSW 9.2 mph - N/A   Clear
6:52 PM 84.0 °F 84.5 °F 62.1 °F 47% 29.94 in 10.0 mi South 8.1 mph - N/A   Clear
7:52 PM 80.1 °F 81.5 °F 63.0 °F 56% 29.95 in 10.0 mi South 6.9 mph - N/A   Clear
8:52 PM 77.0 °F - 64.9 °F 66% 29.96 in 10.0 mi South 6.9 mph - N/A   Clear
9:52 PM 73.9 °F - 66.0 °F 76% 29.97 in 10.0 mi South 3.5 mph - N/A   Clear
10:52 PM 73.9 °F - 68.0 °F 82% 29.97 in 10.0 mi Calm Calm - N/A   Clear
11:52 PM 69.1 °F - 66.0 °F 90% 29.97 in 10.0 mi Calm Calm - N/A   Clear